Port Clinton Carl R Keller Fi, OH

5:34 PM EST on December 17, 2017 (GMT -0500)
Keller

Weather History for KPCW - April, 2013

Change the Weather History Date:

Sunday, April 28, 2013

  Actual Average (KTTF) Record (KTTF)
Temperature  
Mean Temperature 52 °F -  
Max Temperature 60 °F 62 °F 86 °F (1962)
Min Temperature 43 °F 43 °F 26 °F (1946)
Degree Days  
Heating Degree Days 14    
Growing Degree Days 2 (Base 50)    
Moisture  
Dew Point 50 °F    
Average Humidity 87    
Maximum Humidity 100    
Minimum Humidity 67    
Precipitation  
Precipitation 0.00 in - - ()
Sea Level Pressure  
Sea Level Pressure 29.93 in    
Wind  
Wind Speed 6 mph ()    
Max Wind Speed 12 mph    
Max Gust Speed -    
Visibility 9.0 miles    
Events Rain    
Averages and records for this station are not official NWS values.
T = Trace of Precipitation, MM = Missing Value Source: Averaged Metar Reports

Daily Weather History Graph

Daily Weather History Graph

Search for Another Location

Airport or City:

Trip Planner

Search our weather history database for the weather conditions in past years. The results will help you decide how hot, cold, wet, or windy it might be!

Date:

Astronomy

Apr. 28, 2013 Rise Set
Actual Time 6:32 AM EDT 8:26 PM EDT
Civil Twilight 6:02 AM EDT 8:56 PM EDT
Nautical Twilight 5:25 AM EDT 9:32 PM EDT
Astronomical Twilight 4:46 AM EDT 10:12 PM EDT
Moon 11:56 PM EDT (4/28) 8:46 AM EDT (4/28)
Length of Visible Light 14h 54m
Length of Day
13h 54m
Waning Gibbous, 89% of the Moon is Illuminated
Apr 28
Waning Gibbous
May 2
Last Quarter
May 9
New
May 18
First Quarter
May 25
Full

Hourly Weather History & Observations

Time (EDT) Temp. Windchill Dew Point Humidity Pressure Visibility Wind Dir Wind Speed Gust Speed Precip Events Conditions
12:14 AM 44.6 °F 41.4 °F 37.4 °F 76% 30.07 in 10.0 mi East 5.8 mph - N/A   Clear
12:33 AM 44.6 °F 42.2 °F 37.4 °F 76% 30.07 in 10.0 mi ESE 4.6 mph - N/A   Clear
12:53 AM 43.9 °F 42.3 °F 37.9 °F 80% 30.08 in 10.0 mi ESE 3.5 mph - N/A   Clear
1:14 AM 46.4 °F - 39.2 °F 76% 30.08 in 10.0 mi Calm Calm - N/A   Scattered Clouds
1:33 AM 44.6 °F 42.2 °F 39.2 °F 81% 30.08 in 10.0 mi ESE 4.6 mph - N/A   Scattered Clouds
1:53 AM 45.9 °F - 41.9 °F 86% 30.07 in 10.0 mi Calm Calm - N/A   Mostly Cloudy
2:14 AM 46.4 °F 45.2 °F 42.8 °F 87% 30.05 in 10.0 mi ESE 3.5 mph - N/A   Overcast
2:33 AM 46.4 °F - 42.8 °F 87% 30.04 in 10.0 mi Calm Calm - N/A   Mostly Cloudy
2:54 AM 46.9 °F - 43.9 °F 89% 30.04 in 10.0 mi SE 3.5 mph - N/A   Mostly Cloudy
3:14 AM 48.2 °F - 44.6 °F 87% 30.03 in 10.0 mi SSE 3.5 mph - N/A   Overcast
3:33 AM 48.2 °F - 44.6 °F 87% 30.02 in 10.0 mi SE 4.6 mph - N/A   Overcast
3:54 AM 48.9 °F - 43.9 °F 83% 30.01 in 10.0 mi ESE 4.6 mph - N/A   Overcast
4:14 AM 48.2 °F - 44.6 °F 87% 30.00 in 10.0 mi ESE 5.8 mph - N/A   Overcast
4:33 AM 48.2 °F - 44.6 °F 87% 30.01 in 10.0 mi SE 3.5 mph - N/A   Overcast
4:54 AM 50.0 °F - 43.0 °F 77% 30.01 in 10.0 mi East 3.5 mph - N/A   Overcast
5:13 AM 51.8 °F - 42.8 °F 71% 30.01 in 10.0 mi ESE 4.6 mph - N/A   Overcast
5:33 AM 51.8 °F - 42.8 °F 71% 30.01 in 10.0 mi East 3.5 mph - N/A   Overcast
5:54 AM 52.0 °F - 41.9 °F 69% 30.00 in 10.0 mi East 5.8 mph - N/A   Overcast
6:13 AM 51.8 °F - 42.8 °F 71% 29.99 in 10.0 mi ESE 6.9 mph - N/A Rain Light Rain
6:33 AM 53.6 °F - 42.8 °F 67% 29.99 in 10.0 mi ESE 8.1 mph - N/A   Overcast
7:13 AM 51.8 °F - 42.8 °F 71% 29.99 in 10.0 mi ESE 9.2 mph - N/A Rain Light Rain
7:34 AM 53.6 °F - 42.8 °F 67% 29.99 in 10.0 mi ESE 10.4 mph - N/A   Overcast
7:53 AM 53.6 °F - 44.6 °F 72% 29.99 in 10.0 mi ESE 10.4 mph - N/A Rain Light Rain
8:14 AM 51.8 °F - 46.4 °F 82% 29.99 in 10.0 mi ESE 9.2 mph - N/A Rain Light Rain
8:34 AM 51.8 °F - 46.4 °F 82% 29.99 in 8.0 mi ESE 6.9 mph - N/A Rain Light Rain
9:14 AM 51.8 °F - 46.4 °F 82% 29.98 in 5.0 mi ESE 9.2 mph - N/A Rain Light Rain
9:34 AM 51.8 °F - 48.2 °F 88% 29.97 in 5.0 mi ESE 11.5 mph - N/A Rain Light Rain
9:46 AM 51.8 °F - 48.2 °F 88% 29.97 in 4.0 mi ESE 11.5 mph - N/A Rain Light Rain
10:14 AM 51.8 °F - 48.2 °F 88% 29.96 in 4.0 mi ESE 11.5 mph - N/A Rain Light Rain
10:33 AM 51.8 °F - 50.0 °F 94% 29.95 in 4.0 mi ESE 10.4 mph - N/A Rain Light Rain
10:54 AM 51.8 °F - 50.0 °F 94% 29.95 in 6.0 mi ESE 9.2 mph - N/A Rain Light Rain
11:14 AM 51.8 °F - 51.8 °F 100% 29.94 in 4.0 mi SE 10.4 mph - N/A Rain Light Rain
11:34 AM 53.6 °F - 51.8 °F 94% 29.93 in 6.0 mi SE 9.2 mph - N/A Rain Light Rain
11:45 AM 53.6 °F - 51.8 °F 94% 29.94 in 5.0 mi SE 10.4 mph - N/A Rain Light Rain
12:14 PM 53.6 °F - 53.6 °F 100% 29.93 in 4.0 mi SSE 10.4 mph - N/A Rain Light Rain
12:33 PM 55.4 °F - 53.6 °F 94% 29.93 in 6.0 mi SSE 10.4 mph - N/A Rain Light Rain
12:50 PM 55.4 °F - 53.6 °F 94% 29.92 in 5.0 mi SE 9.2 mph - N/A Rain Light Rain
1:13 PM 55.4 °F - 53.6 °F 94% 29.91 in 10.0 mi SE 10.4 mph - N/A   Overcast
1:29 PM 57.2 °F - 53.6 °F 88% 29.91 in 10.0 mi SSE 10.4 mph - N/A   Overcast
1:50 PM 57.2 °F - 55.4 °F 94% 29.90 in 10.0 mi SSE 10.4 mph - N/A Rain Light Rain
2:14 PM 57.2 °F - 55.4 °F 94% 29.89 in 8.0 mi SSE 9.2 mph - N/A Rain Light Rain
2:33 PM 57.2 °F - 55.4 °F 94% 29.89 in 10.0 mi SSE 8.1 mph - N/A   Overcast
2:54 PM 57.9 °F - 54.9 °F 90% 29.89 in 10.0 mi SSE 9.2 mph - N/A   Overcast
3:13 PM 57.2 °F - 55.4 °F 94% 29.89 in 10.0 mi SSE 8.1 mph - N/A   Overcast
3:33 PM 57.2 °F - 55.4 °F 94% 29.88 in 10.0 mi SE 8.1 mph - N/A   Overcast
3:54 PM 57.2 °F - 55.4 °F 94% 29.87 in 10.0 mi SE 6.9 mph - N/A   Overcast
4:13 PM 59.0 °F - 55.4 °F 88% 29.86 in 10.0 mi SE 9.2 mph - N/A   Overcast
4:33 PM 60.8 °F - 55.4 °F 82% 29.85 in 10.0 mi SE 9.2 mph - N/A   Overcast
4:54 PM 60.8 °F - 55.4 °F 82% 29.85 in 10.0 mi SE 9.2 mph - N/A   Overcast
5:13 PM 60.8 °F - 57.2 °F 88% 29.85 in 8.0 mi SSE 6.9 mph - N/A Rain Light Rain
5:34 PM 59.0 °F - 57.2 °F 94% 29.84 in 10.0 mi SE 6.9 mph - N/A   Overcast
5:53 PM 57.2 °F - 55.4 °F 94% 29.84 in 10.0 mi ESE 5.8 mph - N/A   Overcast
6:14 PM 57.2 °F - 55.4 °F 94% 29.84 in 10.0 mi ESE 5.8 mph - N/A   Overcast
6:34 PM 57.2 °F - 55.4 °F 94% 29.83 in 10.0 mi SE 5.8 mph - N/A Rain Light Rain
6:53 PM 57.2 °F - 55.4 °F 94% 29.83 in 10.0 mi ESE 5.8 mph - N/A   Overcast
7:04 PM 59.0 °F - 55.4 °F 88% 29.83 in 10.0 mi SE 5.8 mph - N/A   Overcast
7:32 PM 60.8 °F - 55.4 °F 82% 29.83 in 10.0 mi SSE 5.8 mph - N/A Rain Light Rain
7:54 PM 59.0 °F - 55.4 °F 88% 29.83 in 8.0 mi SSE 8.1 mph - N/A Rain Light Rain
8:07 PM 59.0 °F - 57.2 °F 94% 29.83 in 9.0 mi SSE 6.9 mph - N/A Rain Light Rain
8:29 PM 59.0 °F - 57.2 °F 94% 29.83 in 10.0 mi SSE 9.2 mph - N/A   Overcast
8:54 PM 59.0 °F - 55.4 °F 88% 29.84 in 9.0 mi SSE 6.9 mph - N/A Rain Light Rain
9:13 PM 59.0 °F - 57.2 °F 94% 29.84 in 10.0 mi SSE 5.8 mph - N/A Rain Light Rain
9:34 PM 59.0 °F - 55.4 °F 88% 29.84 in 10.0 mi SSE 8.1 mph - N/A Rain Light Rain
9:54 PM 57.2 °F - 55.4 °F 94% 29.84 in 10.0 mi SSE 8.1 mph - N/A   Overcast
10:13 PM 57.2 °F - 55.4 °F 94% 29.84 in 10.0 mi SSE 5.8 mph - N/A   Mostly Cloudy
10:34 PM 57.2 °F - 55.4 °F 94% 29.84 in 10.0 mi SSE 4.6 mph - N/A   Overcast
10:54 PM 57.2 °F - 55.4 °F 94% 29.85 in 10.0 mi South 8.1 mph - N/A   Mostly Cloudy
11:14 PM 57.2 °F - 55.4 °F 94% 29.84 in 10.0 mi South 8.1 mph - N/A   Mostly Cloudy
11:33 PM 57.2 °F - 55.4 °F 94% 29.84 in 10.0 mi South 6.9 mph - N/A   Overcast
11:54 PM 57.2 °F - 55.4 °F 94% 29.84 in 10.0 mi SSW 4.6 mph - N/A   Overcast